[[{"header":{"parameterUnit":"m.s-1","parameterCategory":1,"la1":30.2991,"la2":30.254,"lo1":-89.0895,"lo2":-89.0444,"dy":0.0017,"dx":0.0017,"nx":28,"ny":28,"refTime":"2023-11-08T09:00:00:Z","depth":0,"parameterNumber":2,"parameterNumberName":"U-component_of_WINDS"},"data":[0,0,0,0,0,0,0,0,0,0,0,0,0,0,0,0,0,0,0,0,0,0,0,0,0,0,0,0,0,0,0,0,0,0,0,0,0,0,0,0,0,0,0,0,0,0,0,0,0,0,0,0,0,0,0,0,0,0,-0.432,-0.432,0,-0.4316,-0.4316,-0.4316,-0.433,-0.433,-0.433,-0.4331,-0.4328,-0.4328,-0.4327,0,0,0,0,0,0,0,0,0,0,0,0,0,-0.434,-0.4339,-0.432,-0.432,-0.432,-0.4316,-0.4316,-0.4316,-0.433,-0.433,-0.433,-0.4331,-0.4328,-0.4328,-0.4327,0,0,0,0,0,0,0,0,0,0,0,0,0,-0.4333,-0.4339,-0.432,-0.4326,-0.4327,-0.4316,-0.4316,-0.4316,-0.4329,-0.433,-0.4331,-0.4331,-0.4328,-0.4328,-0.4327,-0.4311,0,0,-0.4325,-0.4325,0,0,0,0,0,0,0,0,-0.4333,-0.4332,-0.4325,-0.4326,-0.4326,-0.4324,-0.4322,-0.4314,-0.4329,-0.4328,-0.4331,-0.4332,-0.4326,-0.4326,-0.4324,-0.431,-0.431,-0.4325,-0.4325,-0.4324,-0.4324,0,0,0,0,0,0,0,-0.4334,-0.4332,-0.4318,-0.4325,-0.4326,-0.4329,-0.4329,-0.432,-0.4324,-0.4328,-0.4329,-0.4329,-0.4327,-0.4324,-0.4324,-0.431,-0.4325,-0.4324,-0.4324,-0.4324,-0.4282,-0.4281,0,0,0,0,0,0,-0.4333,-0.4333,-0.4318,-0.4318,-0.4331,-0.4328,-0.4328,-0.4324,-0.4324,-0.4325,-0.4328,-0.4329,-0.4325,-0.4325,-0.4324,-0.4303,-0.4324,-0.4324,-0.4323,-0.4282,-0.4281,-0.4281,0,0,0,0,0,0,-0.4334,-0.4332,-0.4319,-0.4326,-0.4324,-0.4327,-0.4323,-0.4324,-0.4321,-0.4324,-0.4325,-0.4325,-0.4326,-0.4325,-0.4313,-0.4303,-0.4323,-0.4323,-0.4283,-0.4282,-0.4281,-0.4263,0,0,0,0,0,0,-0.4334,-0.4332,-0.4326,-0.4325,-0.4324,-0.4308,-0.4322,-0.4323,-0.432,-0.4321,-0.4321,-0.4322,-0.4326,-0.4314,-0.4313,-0.4303,-0.4322,-0.4284,-0.4283,-0.4281,-0.4264,-0.4261,-0.4259,0,0,0,0,0,-0.4335,-0.4321,-0.4325,-0.4323,-0.4316,-0.4308,-0.4307,-0.4311,-0.4319,-0.4313,-0.4314,-0.4322,-0.4305,-0.4313,-0.4311,-0.4301,-0.4285,-0.4283,-0.4281,-0.4266,-0.4262,-0.4259,0,0,0,0,0,0,-0.4322,-0.4322,-0.4326,-0.4312,-0.4309,-0.431,-0.4302,-0.4308,-0.4303,-0.4305,-0.4312,-0.4311,-0.4298,-0.4299,-0.4308,-0.4284,-0.4296,-0.4294,-0.4285,-0.4281,-0.4278,-0.4279,-0.4322,0,0,0,0,0,-0.4317,-0.431,-0.431,-0.4298,-0.4296,-0.4299,-0.4296,-0.4299,-0.4297,-0.4297,-0.4297,-0.4295,-0.4289,-0.4285,-0.428,-0.4264,-0.4264,-0.4257,-0.4254,-0.4251,-0.425,-0.424,-0.4236,-0.4275,-0.4275,-0.4275,0,0,-0.4308,-0.4307,-0.4302,-0.4295,-0.4294,-0.4286,-0.4298,-0.429,-0.4284,-0.4296,-0.4284,-0.4285,-0.4283,-0.4269,-0.4263,-0.4268,-0.4239,-0.4249,-0.4248,-0.4247,-0.4238,-0.4234,-0.4231,-0.4274,-0.4274,-0.4275,0,0,-0.4286,-0.4285,-0.4274,-0.4272,-0.4269,-0.4271,-0.4268,-0.4267,-0.4267,-0.4256,-0.4264,-0.4257,-0.4247,-0.4245,-0.4242,-0.4218,-0.4225,-0.4216,-0.4201,-0.4192,-0.4189,-0.4186,-0.4177,-0.4173,-0.4214,-0.4214,-0.4214,0,-0.4275,-0.4263,-0.4268,-0.4258,-0.4255,-0.4263,-0.4252,-0.425,-0.4246,-0.4243,-0.4249,-0.4236,-0.4235,-0.422,-0.4214,-0.4212,-0.4209,-0.4216,-0.4189,-0.4186,-0.4184,-0.4175,-0.4171,-0.4213,-0.4213,-0.4213,-0.4214,0,-0.4249,-0.4241,-0.4232,-0.4227,-0.4222,-0.4212,-0.4215,-0.4209,-0.4213,-0.4214,-0.4202,-0.4201,-0.4195,-0.4192,-0.4196,-0.4177,-0.418,-0.4188,-0.42,-0.4179,-0.4171,-0.4167,-0.4212,-0.4212,-0.4212,-0.4213,0,0,-0.4221,-0.4216,-0.4213,-0.421,-0.4207,-0.42,-0.419,-0.4183,-0.4178,-0.4175,-0.4166,-0.4156,-0.4162,-0.4159,-0.4163,-0.4155,-0.4134,-0.4163,-0.4163,-0.4157,-0.4112,-0.4106,-0.4102,-0.4138,-0.4138,-0.4137,-0.4112,0,-0.42,-0.4181,-0.4184,-0.4166,-0.4158,-0.4165,-0.4155,-0.4152,-0.4152,-0.4145,-0.4146,-0.4138,-0.4148,-0.4146,-0.4138,-0.4138,-0.4125,-0.414,-0.413,-0.413,-0.413,-0.4098,-0.4092,-0.4068,-0.4109,-0.4108,-0.4108,0,-0.4172,-0.4166,-0.4147,-0.4143,-0.414,-0.4131,-0.4125,-0.4118,-0.4114,-0.4115,-0.411,-0.4115,-0.4104,-0.4116,-0.4101,-0.4111,-0.4107,-0.4106,-0.4105,-0.4104,-0.4117,-0.4096,-0.4061,-0.4057,-0.4103,-0.4103,-0.4104,0,-0.4153,-0.414,-0.4126,-0.4123,-0.4119,-0.4112,-0.411,-0.4107,-0.4102,-0.4096,-0.4093,-0.4086,-0.4082,-0.4077,-0.4079,-0.4088,-0.4063,-0.4076,-0.4063,-0.4063,-0.4058,-0.4058,-0.4021,-0.4056,-0.4056,-0.4056,-0.4056,0,-0.4128,-0.4116,-0.4117,-0.4109,-0.4095,-0.4098,-0.4084,-0.4083,-0.4079,-0.4071,-0.4077,-0.4069,-0.4073,-0.4065,-0.4067,-0.4053,-0.4051,-0.4051,-0.4052,-0.4051,-0.4051,-0.4048,-0.405,-0.4055,-0.4055,-0.4055,-0.4055,0,-0.4104,-0.4104,-0.409,-0.4086,-0.4084,-0.4074,-0.4071,-0.4063,-0.4063,-0.4052,-0.4049,-0.405,-0.404,-0.4042,-0.4032,-0.4033,-0.4016,-0.4019,-0.4017,-0.4018,-0.4005,-0.4006,-0.3965,-0.3959,-0.3998,-0.3997,-0.3997,0,-0.4089,-0.4079,-0.4073,-0.4068,-0.4065,-0.4055,-0.405,-0.4052,-0.4046,-0.404,-0.4032,-0.4023,-0.4016,-0.4001,-0.4,-0.3992,-0.3995,-0.3981,-0.3994,-0.3992,-0.3994,-0.3994,-0.3993,-0.3978,-0.3978,-0.3978,-0.3977,0,-0.4061,-0.4061,-0.4052,-0.4043,-0.4036,-0.403,-0.4024,-0.4019,-0.402,-0.4013,-0.4003,-0.3997,-0.3986,-0.3977,-0.3969,-0.3967,-0.3972,-0.3973,-0.397,-0.3968,-0.3967,-0.3967,-0.401,-0.3974,-0.3975,-0.3975,-0.3975,-0.3975,-0.404,-0.4031,-0.4025,-0.4016,-0.4011,-0.4005,-0.3996,-0.3994,-0.3986,-0.3976,-0.3978,-0.3966,-0.3961,-0.3951,-0.3948,-0.3938,-0.3944,-0.3939,-0.3938,-0.3936,-0.3934,-0.3969,-0.3937,-0.3937,-0.3937,-0.3937,-0.3938,0,-0.4012,-0.4008,-0.3999,-0.3989,-0.3981,-0.3985,-0.3978,-0.3972,-0.3961,-0.3955,-0.3947,-0.3935,-0.3925,-0.3923,-0.3914,-0.3907,-0.3909,-0.3904,-0.3905,-0.3904,-0.3931,-0.3934,-0.3903,-0.3903,-0.3903,-0.3903,-0.3903,-0.3903,-0.3997,-0.3981,-0.398,-0.3963,-0.3959,-0.3947,-0.3942,-0.3936,-0.3931,-0.3917,-0.3909,-0.3907,-0.3902,-0.3892,-0.3883,-0.3883,-0.3879,-0.3874,-0.3874,-0.3899,-0.3902,-0.3906,-0.3909,-0.3873,-0.3873,-0.3848,-0.3848,-0.3848]},{"header":{"parameterUnit":"m.s-1","parameterCategory":1,"la1":30.2991,"la2":30.254,"lo1":-89.0895,"lo2":-89.0444,"dy":0.0017,"dx":0.0017,"nx":28,"ny":28,"refTime":"2023-11-08T09:00:00:Z","depth":0,"parameterNumber":3,"parameterNumberName":"V-component_of_WINDS"},"data":[0,0,0,0,0,0,0,0,0,0,0,0,0,0,0,0,0,0,0,0,0,0,0,0,0,0,0,0,0,0,0,0,0,0,0,0,0,0,0,0,0,0,0,0,0,0,0,0,0,0,0,0,0,0,0,0,0,0,0.3166,0.3167,0,0.3244,0.3245,0.3246,0.325,0.325,0.3249,0.3248,0.3331,0.3334,0.3337,0,0,0,0,0,0,0,0,0,0,0,0,0,0.3025,0.3027,0.3166,0.3167,0.3168,0.3244,0.3245,0.3246,0.3251,0.3249,0.3248,0.3247,0.333,0.3333,0.3337,0,0,0,0,0,0,0,0,0,0,0,0,0,0.3093,0.3028,0.3166,0.3179,0.3181,0.3244,0.3245,0.3246,0.3251,0.3249,0.3248,0.3247,0.3329,0.3333,0.3338,0.3393,0,0,0.3352,0.3354,0,0,0,0,0,0,0,0,0.3089,0.3098,0.3176,0.3178,0.3181,0.3236,0.3226,0.3296,0.3251,0.3225,0.3248,0.3246,0.3301,0.3307,0.3325,0.3397,0.34,0.3352,0.3355,0.3357,0.3358,0,0,0,0,0,0,0,0.3084,0.3095,0.3197,0.3177,0.318,0.3183,0.3191,0.3239,0.3269,0.3227,0.3227,0.3236,0.3302,0.3321,0.3327,0.3402,0.3352,0.3356,0.3359,0.3361,0.3525,0.3526,0,0,0,0,0,0,0.3077,0.3091,0.3194,0.3199,0.3131,0.3186,0.3195,0.322,0.3269,0.3275,0.3237,0.3236,0.3314,0.3322,0.333,0.34,0.3357,0.3361,0.3364,0.3523,0.3525,0.3527,0,0,0,0,0,0,0.3073,0.3086,0.3191,0.3145,0.3159,0.319,0.3217,0.3222,0.3241,0.3277,0.3282,0.3251,0.3313,0.3324,0.3377,0.3403,0.3363,0.3367,0.3521,0.3524,0.3526,0.3538,0,0,0,0,0,0,0.3069,0.3085,0.3105,0.3146,0.3161,0.3236,0.3219,0.3224,0.3249,0.3248,0.3291,0.3297,0.3313,0.3371,0.3382,0.3408,0.3371,0.3519,0.3522,0.3525,0.3536,0.3541,0.3545,0,0,0,0,0,0.3064,0.3106,0.3106,0.3118,0.3187,0.3238,0.3247,0.3263,0.325,0.3272,0.3295,0.3296,0.3397,0.3376,0.3389,0.3417,0.3518,0.3521,0.3525,0.3534,0.354,0.3545,0,0,0,0,0,0,0.3068,0.3111,0.3112,0.3167,0.3199,0.3238,0.3266,0.3269,0.3305,0.3303,0.3322,0.3332,0.3386,0.3407,0.3382,0.3474,0.3456,0.3463,0.3459,0.3465,0.3469,0.3464,0.3375,0,0,0,0,0,0.3075,0.3111,0.3147,0.3193,0.3209,0.3235,0.3257,0.3267,0.3301,0.3314,0.3341,0.3375,0.3415,0.3441,0.3479,0.3538,0.3549,0.3564,0.3568,0.3572,0.3578,0.3613,0.362,0.3539,0.3539,0.3538,0,0,0.3091,0.3119,0.3141,0.3195,0.322,0.3259,0.3246,0.3287,0.3316,0.3321,0.3374,0.3394,0.3433,0.3491,0.3517,0.351,0.3603,0.3577,0.3579,0.3583,0.3617,0.3625,0.3632,0.3541,0.3541,0.354,0,0,0.3139,0.3163,0.3204,0.323,0.3268,0.3285,0.3295,0.3335,0.3349,0.3401,0.3406,0.3442,0.3509,0.3537,0.3561,0.362,0.3623,0.3632,0.3657,0.3691,0.3697,0.3703,0.3726,0.3734,0.3637,0.3637,0.3637,0,0.3154,0.3211,0.3226,0.3267,0.3291,0.3296,0.3339,0.3364,0.3413,0.3431,0.3421,0.3506,0.3533,0.3598,0.3612,0.363,0.3643,0.3628,0.3695,0.3701,0.3706,0.3729,0.3737,0.3638,0.3638,0.3638,0.3638,0,0.3229,0.3268,0.3297,0.3344,0.3372,0.3414,0.3436,0.3462,0.3469,0.3488,0.3543,0.3574,0.362,0.3636,0.3643,0.3702,0.3696,0.369,0.3674,0.3715,0.3736,0.3745,0.364,0.3639,0.3639,0.3639,0,0,0.3283,0.3337,0.3348,0.3369,0.3412,0.3444,0.3486,0.353,0.3553,0.3587,0.3625,0.3682,0.3677,0.3703,0.3714,0.3743,0.3791,0.3734,0.3735,0.3745,0.386,0.3866,0.3875,0.3792,0.3794,0.3795,0.3857,0,0.3338,0.3413,0.3427,0.3493,0.3531,0.3536,0.3574,0.3605,0.3623,0.3659,0.368,0.3721,0.371,0.3726,0.3755,0.3779,0.3814,0.3774,0.3829,0.3831,0.3821,0.3886,0.3892,0.3949,0.3865,0.3867,0.3868,0,0.3412,0.3447,0.3516,0.3555,0.3571,0.3605,0.3647,0.368,0.3716,0.3728,0.3757,0.3765,0.3811,0.379,0.3856,0.3828,0.3851,0.3866,0.3869,0.3876,0.3853,0.3897,0.3968,0.3977,0.3881,0.388,0.3879,0,0.3447,0.3511,0.3562,0.358,0.3626,0.3649,0.367,0.3704,0.373,0.3767,0.3784,0.3826,0.385,0.3882,0.3902,0.3885,0.3966,0.3947,0.3979,0.3979,0.3997,0.3996,0.4075,0.4009,0.4009,0.4009,0.4008,0,0.3508,0.3551,0.3578,0.3609,0.3658,0.3675,0.3723,0.3743,0.3774,0.381,0.3817,0.3851,0.3874,0.3912,0.3927,0.398,0.399,0.4002,0.4006,0.4003,0.4001,0.402,0.4017,0.4011,0.401,0.401,0.401,0,0.3556,0.3576,0.3631,0.367,0.3681,0.3715,0.3749,0.378,0.3798,0.3844,0.3856,0.3885,0.393,0.3952,0.4009,0.4019,0.4079,0.408,0.4067,0.4069,0.4101,0.4098,0.4195,0.421,0.4132,0.4133,0.4133,0,0.3594,0.3628,0.3669,0.3694,0.3715,0.3754,0.378,0.3797,0.3825,0.3868,0.3895,0.394,0.3977,0.4049,0.4076,0.412,0.4123,0.4153,0.4129,0.4125,0.4126,0.4124,0.4129,0.4159,0.4159,0.416,0.416,0,0.3661,0.367,0.3706,0.3747,0.3778,0.3811,0.3844,0.3864,0.3887,0.3917,0.3963,0.3992,0.4049,0.4094,0.414,0.4162,0.4166,0.4167,0.4178,0.4176,0.4168,0.4175,0.4081,0.4166,0.4165,0.4165,0.4165,0.4164,0.3708,0.3738,0.3772,0.3814,0.384,0.387,0.3902,0.3924,0.3962,0.4009,0.4017,0.4066,0.4102,0.4163,0.4187,0.4227,0.422,0.4234,0.4238,0.4242,0.4245,0.4159,0.4235,0.4235,0.4235,0.4235,0.4235,0,0.3777,0.3799,0.3837,0.3882,0.3915,0.3913,0.395,0.3978,0.4021,0.4053,0.409,0.4143,0.4187,0.4217,0.4263,0.4289,0.4292,0.43,0.43,0.4305,0.4247,0.4235,0.4297,0.4297,0.4297,0.4297,0.4297,0.4297,0.3817,0.3869,0.3881,0.3946,0.3968,0.4016,0.4037,0.4066,0.4092,0.4151,0.4187,0.4206,0.4239,0.4286,0.4327,0.4335,0.4352,0.4361,0.437,0.4315,0.4309,0.4303,0.4291,0.4364,0.4364,0.4424,0.4425,0.4425]}]]